When you browse on this site, cookies collect data to enhance your experience and personalize the content and advertising you see.
Visit our Privacy Policy to learn more. By continuing to use the site, you agree to this use of cookies and data.

Météo par heure à Cacalomacán

Ce jour, 3 Juillet, Vendredi

Heure Température Précipitation Vent Pression Humidité
00:00 +11°C° 0.1 mm 1 m/s 545 mmHg 93%
01:00 +11°C° 0.1 mm 1 m/s 545 mmHg 93%
02:00 +10°C° 0.1 mm 1 m/s 544 mmHg 94%
03:00 +10°C° 0.1 mm 1 m/s 544 mmHg 94%
04:00 +10°C° 0.1 mm 1 m/s 544 mmHg 94%
05:00 +10°C° 0.1 mm 1 m/s 544 mmHg 94%
06:00 +12°C° 0 mm 1 m/s 546 mmHg 89%
07:00 +13°C° 0 mm 1 m/s 547 mmHg 83%
08:00 +15°C° 0 mm 1 m/s 548 mmHg 78%
09:00 +16°C° 0.3 mm 1 m/s 548 mmHg 70%
10:00 +19°C° 0.3 mm 1 m/s 549 mmHg 63%
11:00 +19°C° 0.3 mm 2 m/s 550 mmHg 55%
12:00 +19°C° 0.8 mm 2 m/s 549 mmHg 56%
13:00 +20°C° 0.8 mm 2 m/s 548 mmHg 56%
14:00 +20°C° 0.8 mm 2 m/s 548 mmHg 56%
15:00 +18°C° 0.9 mm 2 m/s 547 mmHg 64%
16:00 +17°C° 0.9 mm 2 m/s 546 mmHg 73%
17:00 +16°C° 0.9 mm 2 m/s 545 mmHg 81%
18:00 +14°C° 0.9 mm 1 m/s 545 mmHg 83%
19:00 +13°C° 0.9 mm 1 m/s 546 mmHg 85%
20:00 +11°C° 0.9 mm 0 m/s 546 mmHg 88%
21:00 +11°C° 0.1 mm 0 m/s 545 mmHg 89%
22:00 +10°C° 0.1 mm 0 m/s 545 mmHg 91%
23:00 +9°C° 0.1 mm 0 m/s 545 mmHg 92%

Demain, 4 Juillet, Samedi

Heure Température Précipitation Vent Pression Humidité
00:00 +9°C° 0 mm 0 m/s 545 mmHg 93%
01:00 +9°C° 0 mm 0 m/s 545 mmHg 94%
02:00 +9°C° 0 mm 0 m/s 544 mmHg 94%
03:00 +9°C° 0 mm 0 m/s 544 mmHg 94%
04:00 +9°C° 0 mm 0 m/s 544 mmHg 94%
05:00 +9°C° 0 mm 1 m/s 544 mmHg 95%
06:00 +11°C° 0 mm 1 m/s 546 mmHg 88%
07:00 +13°C° 0 mm 1 m/s 547 mmHg 82%
08:00 +15°C° 0 mm 1 m/s 548 mmHg 76%
09:00 +18°C° 0.2 mm 1 m/s 549 mmHg 68%
10:00 +20°C° 0.2 mm 1 m/s 549 mmHg 60%
11:00 +20°C° 0.2 mm 2 m/s 550 mmHg 52%
12:00 +21°C° 0.6 mm 1 m/s 549 mmHg 55%
13:00 +20°C° 0.6 mm 1 m/s 548 mmHg 58%
14:00 +20°C° 0.6 mm 1 m/s 547 mmHg 61%
15:00 +19°C° 0.8 mm 1 m/s 547 mmHg 68%
16:00 +18°C° 0.8 mm 1 m/s 546 mmHg 76%
17:00 +15°C° 0.8 mm 1 m/s 545 mmHg 84%
18:00 +15°C° 0.6 mm 1 m/s 545 mmHg 86%
19:00 +14°C° 0.6 mm 1 m/s 546 mmHg 87%
20:00 +13°C° 0.6 mm 1 m/s 546 mmHg 89%
21:00 +13°C° 0.5 mm 1 m/s 546 mmHg 91%
22:00 +12°C° 0.5 mm 1 m/s 545 mmHg 92%
23:00 +12°C° 0.5 mm 1 m/s 545 mmHg 93%

Après-demain, 5 Juillet, Dimanche

Heure Température Précipitation Vent Pression Humidité
00:00 +10°C° 0.1 mm 0 m/s 545 mmHg 93%
01:00 +10°C° 0.1 mm 0 m/s 545 mmHg 93%
02:00 +10°C° 0.1 mm 0 m/s 544 mmHg 92%
03:00 +10°C° 0 mm 0 m/s 544 mmHg 93%
04:00 +9°C° 0 mm 0 m/s 544 mmHg 93%
05:00 +9°C° 0 mm 0 m/s 544 mmHg 93%
06:00 +11°C° 0 mm 0 m/s 546 mmHg 86%
07:00 +13°C° 0 mm 0 m/s 547 mmHg 80%
08:00 +15°C° 0 mm 0 m/s 548 mmHg 73%
09:00 +16°C° 0.4 mm 0 m/s 548 mmHg 69%
10:00 +19°C° 0.4 mm 1 m/s 549 mmHg 66%
11:00 +20°C° 0.4 mm 1 m/s 549 mmHg 62%
12:00 +19°C° 1.4 mm 1 m/s 548 mmHg 67%
13:00 +19°C° 1.4 mm 1 m/s 547 mmHg 73%
14:00 +18°C° 1.4 mm 1 m/s 546 mmHg 79%
15:00 +16°C° 1.4 mm 1 m/s 545 mmHg 82%
16:00 +16°C° 1.4 mm 1 m/s 545 mmHg 84%
17:00 +15°C° 1.4 mm 1 m/s 544 mmHg 87%
18:00 +14°C° 1 mm 1 m/s 545 mmHg 89%
19:00 +13°C° 1 mm 1 m/s 545 mmHg 90%
20:00 +12°C° 1 mm 1 m/s 545 mmHg 92%
21:00 +12°C° 0.3 mm 1 m/s 545 mmHg 92%
22:00 +10°C° 0.3 mm 0 m/s 545 mmHg 92%
23:00 +10°C° 0.3 mm 0 m/s 545 mmHg 92%

6 Juillet, Lundi

Heure Température Précipitation Vent Pression Humidité
00:00 +11°C° 0 mm 1 m/s 544 mmHg 93%
01:00 +11°C° 0 mm 1 m/s 544 mmHg 95%
02:00 +10°C° 0 mm 1 m/s 544 mmHg 96%
03:00 +10°C° 0 mm 1 m/s 544 mmHg 96%
04:00 +9°C° 0 mm 0 m/s 544 mmHg 97%
05:00 +9°C° 0 mm 0 m/s 544 mmHg 97%
06:00 +10°C° 0 mm 0 m/s 545 mmHg 93%
07:00 +13°C° 0 mm 1 m/s 546 mmHg 88%
08:00 +14°C° 0 mm 1 m/s 547 mmHg 84%
09:00 +16°C° 0.1 mm 1 m/s 548 mmHg 74%
10:00 +19°C° 0.1 mm 1 m/s 549 mmHg 65%
11:00 +20°C° 0.1 mm 2 m/s 549 mmHg 55%
12:00 +20°C° 0.3 mm 2 m/s 549 mmHg 55%
13:00 +20°C° 0.3 mm 2 m/s 548 mmHg 55%
14:00 +21°C° 0.3 mm 1 m/s 548 mmHg 55%
15:00 +20°C° 0.4 mm 1 m/s 547 mmHg 65%
16:00 +17°C° 0.4 mm 2 m/s 546 mmHg 75%
17:00 +16°C° 0.4 mm 2 m/s 545 mmHg 84%
18:00 +15°C° 0.5 mm 1 m/s 545 mmHg 87%
19:00 +14°C° 0.5 mm 1 m/s 545 mmHg 89%
20:00 +12°C° 0.5 mm 0 m/s 545 mmHg 92%
21:00 +12°C° 1.1 mm 1 m/s 545 mmHg 93%
22:00 +12°C° 1.1 mm 1 m/s 545 mmHg 93%
23:00 +12°C° 1.1 mm 1 m/s 545 mmHg 94%

7 Juillet, Mardi

Heure Température Précipitation Vent Pression Humidité
00:00 +11°C° 0.1 mm 1 m/s 545 mmHg 94%
01:00 +11°C° 0.1 mm 1 m/s 544 mmHg 94%
02:00 +10°C° 0.1 mm 1 m/s 544 mmHg 94%
03:00 +9°C° 0 mm 0 m/s 544 mmHg 94%
04:00 +9°C° 0 mm 0 m/s 544 mmHg 94%
05:00 +9°C° 0 mm 0 m/s 544 mmHg 95%
06:00 +11°C° 0 mm 0 m/s 546 mmHg 90%
07:00 +13°C° 0 mm 0 m/s 547 mmHg 85%
08:00 +14°C° 0 mm 0 m/s 548 mmHg 79%
09:00 +16°C° 0.3 mm 1 m/s 549 mmHg 76%
10:00 +18°C° 0.3 mm 1 m/s 549 mmHg 72%
11:00 +19°C° 0.3 mm 1 m/s 549 mmHg 68%
12:00 +19°C° 1.2 mm 1 m/s 549 mmHg 71%
13:00 +19°C° 1.2 mm 1 m/s 548 mmHg 75%
14:00 +18°C° 1.2 mm 1 m/s 547 mmHg 78%
15:00 +16°C° 1.8 mm 1 m/s 547 mmHg 83%
16:00 +15°C° 1.8 mm 1 m/s 546 mmHg 88%
17:00 +14°C° 1.8 mm 1 m/s 545 mmHg 92%
18:00 +14°C° 2.1 mm 1 m/s 545 mmHg 93%
19:00 +13°C° 2.1 mm 1 m/s 546 mmHg 95%
20:00 +13°C° 2.1 mm 1 m/s 546 mmHg 96%
21:00 +12°C° 3.2 mm 1 m/s 546 mmHg 95%
22:00 +12°C° 3.2 mm 2 m/s 546 mmHg 95%
23:00 +12°C° 3.2 mm 2 m/s 546 mmHg 95%

8 Juillet, Mercredi

Heure Température Précipitation Vent Pression Humidité
00:00 +10°C° 0.9 mm 2 m/s 546 mmHg 95%
01:00 +11°C° 0.9 mm 1 m/s 545 mmHg 95%
02:00 +11°C° 0.9 mm 1 m/s 545 mmHg 95%
03:00 +9°C° 0 mm 0 m/s 545 mmHg 94%
04:00 +9°C° 0 mm 0 m/s 545 mmHg 93%
05:00 +9°C° 0 mm 0 m/s 544 mmHg 92%
06:00 +11°C° 0 mm 0 m/s 546 mmHg 87%
07:00 +13°C° 0 mm 0 m/s 547 mmHg 83%
08:00 +14°C° 0 mm 0 m/s 548 mmHg 78%
09:00 +16°C° 0.8 mm 1 m/s 548 mmHg 76%
10:00 +18°C° 0.8 mm 1 m/s 549 mmHg 75%
11:00 +19°C° 0.8 mm 1 m/s 549 mmHg 74%
12:00 +18°C° 2 mm 1 m/s 548 mmHg 78%
13:00 +18°C° 2 mm 1 m/s 547 mmHg 82%
14:00 +16°C° 2 mm 1 m/s 546 mmHg 85%
15:00 +15°C° 2.9 mm 1 m/s 545 mmHg 88%
16:00 +14°C° 2.9 mm 1 m/s 545 mmHg 92%
17:00 +13°C° 2.9 mm 1 m/s 544 mmHg 95%
18:00 +12°C° 1.7 mm 1 m/s 545 mmHg 94%
19:00 +12°C° 1.7 mm 1 m/s 545 mmHg 94%
20:00 +11°C° 1.7 mm 1 m/s 545 mmHg 93%
21:00 +11°C° 0 mm 1 m/s 545 mmHg 92%
22:00 +11°C° 0 mm 1 m/s 545 mmHg 90%
23:00 +11°C° 0 mm 1 m/s 545 mmHg 89%
Voir plus